Year,Month,Day,Hour,Minute,Value (Times are PST for temperature in C)
2006,06,26,00,00,20.40
2006,06,26,00,01,20.20
2006,06,26,00,02,20.10
2006,06,26,00,03,20.00
2006,06,26,00,04,19.80
2006,06,26,00,05,19.70
2006,06,26,00,06,19.70
2006,06,26,00,07,19.60
2006,06,26,00,08,19.60
2006,06,26,00,09,19.50
2006,06,26,00,10,19.50
2006,06,26,00,11,19.40
2006,06,26,00,12,19.40
2006,06,26,00,13,19.40
2006,06,26,00,14,19.30
2006,06,26,00,15,19.30
2006,06,26,00,16,19.30
2006,06,26,00,17,19.20
2006,06,26,00,18,19.20
2006,06,26,00,19,19.20
2006,06,26,00,20,19.10
2006,06,26,00,21,19.10
2006,06,26,00,22,19.10
2006,06,26,00,23,19.10
2006,06,26,00,24,19.10
2006,06,26,00,25,19.10
2006,06,26,00,26,19.10
2006,06,26,00,27,19.10
2006,06,26,00,28,19.00
2006,06,26,00,29,18.90
2006,06,26,00,30,18.90
2006,06,26,00,31,18.90
2006,06,26,00,32,18.90
2006,06,26,00,33,18.90
2006,06,26,00,34,18.90
2006,06,26,00,35,18.90
2006,06,26,00,36,18.90
2006,06,26,00,37,18.90
2006,06,26,00,38,18.90
2006,06,26,00,39,18.90
2006,06,26,00,40,18.90
2006,06,26,00,41,18.90
2006,06,26,00,42,18.90
2006,06,26,00,43,18.90
2006,06,26,00,44,18.90
2006,06,26,00,45,18.90
2006,06,26,00,46,18.90
2006,06,26,00,47,18.90
2006,06,26,00,48,18.90
2006,06,26,00,49,18.90
2006,06,26,00,50,18.90
2006,06,26,00,51,18.90
2006,06,26,00,52,18.90
2006,06,26,00,53,18.90
2006,06,26,00,54,18.80
2006,06,26,00,55,18.80
2006,06,26,00,56,18.80
2006,06,26,00,57,18.80
2006,06,26,00,58,18.70
2006,06,26,00,59,18.70
2006,06,26,01,00,18.70
2006,06,26,01,01,18.60
2006,06,26,01,02,18.60
2006,06,26,01,03,18.50
2006,06,26,01,04,18.50
2006,06,26,01,05,18.40
2006,06,26,01,06,18.30
2006,06,26,01,07,18.30
2006,06,26,01,08,18.30
2006,06,26,01,09,18.20
2006,06,26,01,10,18.20
2006,06,26,01,11,18.20
2006,06,26,01,12,18.20
2006,06,26,01,13,18.20
2006,06,26,01,14,18.20
2006,06,26,01,15,18.20
2006,06,26,01,16,18.20
2006,06,26,01,17,18.20
2006,06,26,01,18,18.20
2006,06,26,01,19,18.20
2006,06,26,01,20,18.10
2006,06,26,01,21,18.10
2006,06,26,01,22,18.10
2006,06,26,01,23,18.10
2006,06,26,01,24,18.10
2006,06,26,01,25,18.10
2006,06,26,01,26,18.00
2006,06,26,01,27,17.90
2006,06,26,01,28,17.90
2006,06,26,01,29,17.90
2006,06,26,01,30,17.90
2006,06,26,01,31,17.90
2006,06,26,01,32,17.90
2006,06,26,01,33,17.90
2006,06,26,01,34,17.90
2006,06,26,01,35,17.90
2006,06,26,01,36,17.90
2006,06,26,01,37,17.90
2006,06,26,01,38,17.90
2006,06,26,01,39,17.90
2006,06,26,01,40,17.90
2006,06,26,01,41,18.00
2006,06,26,01,42,18.10
2006,06,26,01,43,18.10
2006,06,26,01,44,18.00
2006,06,26,01,45,18.00
2006,06,26,01,46,18.10
2006,06,26,01,47,18.20
2006,06,26,01,48,18.20
2006,06,26,01,49,18.20
2006,06,26,01,50,18.40
2006,06,26,01,51,18.40
2006,06,26,01,52,18.50
2006,06,26,01,53,18.50
2006,06,26,01,54,18.50
2006,06,26,01,55,18.40
2006,06,26,01,56,18.40
2006,06,26,01,57,18.50
2006,06,26,01,58,18.40
2006,06,26,01,59,18.40
2006,06,26,02,00,18.30
2006,06,26,02,01,18.30
2006,06,26,02,02,18.20
2006,06,26,02,03,18.20
2006,06,26,02,04,18.20
2006,06,26,02,05,18.20
2006,06,26,02,06,18.10
2006,06,26,02,07,18.10
2006,06,26,02,08,18.10
2006,06,26,02,09,17.90
2006,06,26,02,10,17.90
2006,06,26,02,11,17.90
2006,06,26,02,12,17.90
2006,06,26,02,13,17.90
2006,06,26,02,14,17.90
2006,06,26,02,15,17.90
2006,06,26,02,16,17.90
2006,06,26,02,17,17.90
2006,06,26,02,18,17.80
2006,06,26,02,19,17.80
2006,06,26,02,20,17.80
2006,06,26,02,21,17.80
2006,06,26,02,22,17.70
2006,06,26,02,23,17.70
2006,06,26,02,24,17.70
2006,06,26,02,25,17.70
2006,06,26,02,26,17.70
2006,06,26,02,27,17.60
2006,06,26,02,28,17.60
2006,06,26,02,29,17.60
2006,06,26,02,30,17.60
2006,06,26,02,31,17.60
2006,06,26,02,32,17.60
2006,06,26,02,33,17.60
2006,06,26,02,34,17.60
2006,06,26,02,35,17.60
2006,06,26,02,36,17.50
2006,06,26,02,37,17.50
2006,06,26,02,38,17.50
2006,06,26,02,39,17.50
2006,06,26,02,40,17.50
2006,06,26,02,41,17.50
2006,06,26,02,42,17.50
2006,06,26,02,43,17.40
2006,06,26,02,44,17.40
2006,06,26,02,45,17.40
2006,06,26,02,46,17.40
2006,06,26,02,47,17.30
2006,06,26,02,48,17.30
2006,06,26,02,49,17.30
2006,06,26,02,50,17.30
2006,06,26,02,51,17.30
2006,06,26,02,52,17.40
2006,06,26,02,53,17.50
2006,06,26,02,54,17.50
2006,06,26,02,55,17.50
2006,06,26,02,56,17.60
2006,06,26,02,57,17.60
2006,06,26,02,58,17.60
2006,06,26,02,59,17.60
2006,06,26,03,00,17.60
2006,06,26,03,01,17.50
2006,06,26,03,02,17.50
2006,06,26,03,03,17.40
2006,06,26,03,04,17.40
2006,06,26,03,05,17.30
2006,06,26,03,06,17.30
2006,06,26,03,07,17.30
2006,06,26,03,08,17.20
2006,06,26,03,09,17.20
2006,06,26,03,10,17.20
2006,06,26,03,11,17.10
2006,06,26,03,12,17.10
2006,06,26,03,13,17.10
2006,06,26,03,14,17.10
2006,06,26,03,15,17.00
2006,06,26,03,16,17.00
2006,06,26,03,17,17.00
2006,06,26,03,18,17.00
2006,06,26,03,19,17.00
2006,06,26,03,20,17.00
2006,06,26,03,21,16.90
2006,06,26,03,22,16.90
2006,06,26,03,23,16.90
2006,06,26,03,24,16.90
2006,06,26,03,25,16.90
2006,06,26,03,26,16.90
2006,06,26,03,27,16.90
2006,06,26,03,28,16.90
2006,06,26,03,29,16.80
2006,06,26,03,30,16.80
2006,06,26,03,31,16.80
2006,06,26,03,32,16.80
2006,06,26,03,33,16.80
2006,06,26,03,34,16.80
2006,06,26,03,35,16.80
2006,06,26,03,36,16.80
2006,06,26,03,37,16.80
2006,06,26,03,38,16.80
2006,06,26,03,39,16.80
2006,06,26,03,40,16.80
2006,06,26,03,41,16.80
2006,06,26,03,42,16.70
2006,06,26,03,43,16.70
2006,06,26,03,44,16.70
2006,06,26,03,45,16.60
2006,06,26,03,46,16.60
2006,06,26,03,47,16.50
2006,06,26,03,48,16.40
2006,06,26,03,49,16.40
2006,06,26,03,50,16.40
2006,06,26,03,51,16.40
2006,06,26,03,52,16.40
2006,06,26,03,53,16.40
2006,06,26,03,54,16.40
2006,06,26,03,55,16.40
2006,06,26,03,56,16.40
2006,06,26,03,57,16.40
2006,06,26,03,58,16.40
2006,06,26,03,59,16.40
2006,06,26,04,00,16.40
2006,06,26,04,01,16.40
2006,06,26,04,02,16.30
2006,06,26,04,03,16.20
2006,06,26,04,04,16.10
2006,06,26,04,05,16.10
2006,06,26,04,06,16.10
2006,06,26,04,07,16.10
2006,06,26,04,08,15.90
2006,06,26,04,09,15.80
2006,06,26,04,10,15.80
2006,06,26,04,11,15.70
2006,06,26,04,12,15.60
2006,06,26,04,13,15.60
2006,06,26,04,14,15.60
2006,06,26,04,15,15.60
2006,06,26,04,16,15.50
2006,06,26,04,17,15.40
2006,06,26,04,18,15.30
2006,06,26,04,19,15.30
2006,06,26,04,20,15.30
2006,06,26,04,21,15.30
2006,06,26,04,22,15.30
2006,06,26,04,23,15.30
2006,06,26,04,24,15.20
2006,06,26,04,25,15.20
2006,06,26,04,26,15.10
2006,06,26,04,27,15.10
2006,06,26,04,28,15.00
2006,06,26,04,29,14.90
2006,06,26,04,30,14.90
2006,06,26,04,31,14.90
2006,06,26,04,32,14.80
2006,06,26,04,33,14.80
2006,06,26,04,34,14.80
2006,06,26,04,35,14.80
2006,06,26,04,36,14.80
2006,06,26,04,37,14.80
2006,06,26,04,38,14.70
2006,06,26,04,39,14.70
2006,06,26,04,40,14.60
2006,06,26,04,41,14.60
2006,06,26,04,42,14.50
2006,06,26,04,43,14.50
2006,06,26,04,44,14.50
2006,06,26,04,45,14.40
2006,06,26,04,46,14.40
2006,06,26,04,47,14.40
2006,06,26,04,48,14.40
2006,06,26,04,49,14.40
2006,06,26,04,50,14.40
2006,06,26,04,51,14.40
2006,06,26,04,52,14.40
2006,06,26,04,53,14.50
2006,06,26,04,54,14.60
2006,06,26,04,55,14.60
2006,06,26,04,56,14.60
2006,06,26,04,57,14.60
2006,06,26,04,58,14.60
2006,06,26,04,59,14.60
2006,06,26,05,00,14.50
2006,06,26,05,01,14.50
2006,06,26,05,02,14.50
2006,06,26,05,03,14.40
2006,06,26,05,04,14.40
2006,06,26,05,05,14.40
2006,06,26,05,06,14.40
2006,06,26,05,07,14.30
2006,06,26,05,08,14.30
2006,06,26,05,09,14.30
2006,06,26,05,10,14.30
2006,06,26,05,11,14.30
2006,06,26,05,12,14.40
2006,06,26,05,13,14.40
2006,06,26,05,14,14.50
2006,06,26,05,15,14.50
2006,06,26,05,16,14.50
2006,06,26,05,17,14.60
2006,06,26,05,18,14.60
2006,06,26,05,19,14.60
2006,06,26,05,20,14.60
2006,06,26,05,21,14.60
2006,06,26,05,22,14.60
2006,06,26,05,23,14.70
2006,06,26,05,24,14.70
2006,06,26,05,25,14.70
2006,06,26,05,26,14.80
2006,06,26,05,27,14.80
2006,06,26,05,28,14.80
2006,06,26,05,29,14.80
2006,06,26,05,30,14.80
2006,06,26,05,31,14.80
2006,06,26,05,32,14.80
2006,06,26,05,33,14.80
2006,06,26,05,34,14.90
2006,06,26,05,35,14.90
2006,06,26,05,36,14.90
2006,06,26,05,37,14.90
2006,06,26,05,38,14.90
2006,06,26,05,39,15.00
2006,06,26,05,40,15.00
2006,06,26,05,41,15.00
2006,06,26,05,42,15.10
2006,06,26,05,43,15.10
2006,06,26,05,44,15.10
2006,06,26,05,45,15.10
2006,06,26,05,46,15.10
2006,06,26,05,47,15.10
2006,06,26,05,48,15.20
2006,06,26,05,49,15.20
2006,06,26,05,50,15.20
2006,06,26,05,51,15.20
2006,06,26,05,52,15.10
2006,06,26,05,53,15.10
2006,06,26,05,54,15.20
2006,06,26,05,55,15.20
2006,06,26,05,56,15.20
2006,06,26,05,57,15.20
2006,06,26,05,58,15.20
2006,06,26,05,59,15.30
2006,06,26,06,00,15.30
2006,06,26,06,01,15.30
2006,06,26,06,02,15.30
2006,06,26,06,03,15.30
2006,06,26,06,04,15.30
2006,06,26,06,05,15.30
2006,06,26,06,06,15.40
2006,06,26,06,07,15.40
2006,06,26,06,08,15.40
2006,06,26,06,09,15.40
2006,06,26,06,10,15.40
2006,06,26,06,11,15.40
2006,06,26,06,12,15.40
2006,06,26,06,13,15.40
2006,06,26,06,14,15.50
2006,06,26,06,15,15.50
2006,06,26,06,16,15.50
2006,06,26,06,17,15.60
2006,06,26,06,18,15.70
2006,06,26,06,19,15.80
2006,06,26,06,20,15.80
2006,06,26,06,21,15.90
2006,06,26,06,22,16.00
2006,06,26,06,23,16.10
2006,06,26,06,24,16.10
2006,06,26,06,25,16.20
2006,06,26,06,26,16.20
2006,06,26,06,27,16.20
2006,06,26,06,28,16.40
2006,06,26,06,29,16.40
2006,06,26,06,30,16.40
2006,06,26,06,31,16.50
2006,06,26,06,32,16.60
2006,06,26,06,33,16.60
2006,06,26,06,34,16.70
2006,06,26,06,35,16.70
2006,06,26,06,36,16.70
2006,06,26,06,37,16.80
2006,06,26,06,38,16.80
2006,06,26,06,39,16.90
2006,06,26,06,40,16.90
2006,06,26,06,41,16.90
2006,06,26,06,42,16.90
2006,06,26,06,43,17.00
2006,06,26,06,44,17.00
2006,06,26,06,45,17.00
2006,06,26,06,46,17.00
2006,06,26,06,47,17.10
2006,06,26,06,48,17.10
2006,06,26,06,49,17.10
2006,06,26,06,50,17.30
2006,06,26,06,51,17.30
2006,06,26,06,52,17.40
2006,06,26,06,53,17.40
2006,06,26,06,54,17.40
2006,06,26,06,55,17.40
2006,06,26,06,56,17.40
2006,06,26,06,57,17.40
2006,06,26,06,58,17.60
2006,06,26,06,59,17.90
2006,06,26,07,00,17.90
2006,06,26,07,01,18.00
2006,06,26,07,02,18.10
2006,06,26,07,03,18.20
2006,06,26,07,04,18.20
2006,06,26,07,05,18.30
2006,06,26,07,06,18.40
2006,06,26,07,07,18.50
2006,06,26,07,08,18.50
2006,06,26,07,09,18.60
2006,06,26,07,10,18.70
2006,06,26,07,11,18.80
2006,06,26,07,12,18.90
2006,06,26,07,13,19.00
2006,06,26,07,14,19.10
2006,06,26,07,15,19.20
2006,06,26,07,16,19.40
2006,06,26,07,17,19.50
2006,06,26,07,18,19.60
2006,06,26,07,19,19.70
2006,06,26,07,20,19.80
2006,06,26,07,21,19.90
2006,06,26,07,22,20.00
2006,06,26,07,23,20.10
2006,06,26,07,24,20.20
2006,06,26,07,25,20.20
2006,06,26,07,26,20.30
2006,06,26,07,27,20.40
2006,06,26,07,28,20.50
2006,06,26,07,29,20.50
2006,06,26,07,30,20.60
2006,06,26,07,31,20.70
2006,06,26,07,32,20.80
2006,06,26,07,33,20.80
2006,06,26,07,34,20.90
2006,06,26,07,35,21.00
2006,06,26,07,36,21.00
2006,06,26,07,37,21.10
2006,06,26,07,38,21.10
2006,06,26,07,39,21.10
2006,06,26,07,40,21.20
2006,06,26,07,41,21.20
2006,06,26,07,42,21.30
2006,06,26,07,43,21.30
2006,06,26,07,44,21.30
2006,06,26,07,45,21.30
2006,06,26,07,46,21.30
2006,06,26,07,47,21.30
2006,06,26,07,48,21.40
2006,06,26,07,49,21.40
2006,06,26,07,50,21.40
2006,06,26,07,51,21.40
2006,06,26,07,52,21.50
2006,06,26,07,53,21.60
2006,06,26,07,54,21.60
2006,06,26,07,55,21.60
2006,06,26,07,56,21.60
2006,06,26,07,57,21.60
2006,06,26,07,58,21.60
2006,06,26,07,59,21.60
2006,06,26,08,00,21.60
2006,06,26,08,01,21.60
2006,06,26,08,02,21.60
2006,06,26,08,03,21.60
2006,06,26,08,04,21.80
2006,06,26,08,05,21.80
2006,06,26,08,06,21.80
2006,06,26,08,07,21.80
2006,06,26,08,08,21.80
2006,06,26,08,09,21.90
2006,06,26,08,10,21.90
2006,06,26,08,11,21.90
2006,06,26,08,12,21.90
2006,06,26,08,13,21.90
2006,06,26,08,14,21.90
2006,06,26,08,15,21.90
2006,06,26,08,16,22.00
2006,06,26,08,17,22.00
2006,06,26,08,18,22.00
2006,06,26,08,19,22.10
2006,06,26,08,20,22.20
2006,06,26,08,21,22.20
2006,06,26,08,22,22.20
2006,06,26,08,23,22.20
2006,06,26,08,24,22.40
2006,06,26,08,25,22.40
2006,06,26,08,26,22.40
2006,06,26,08,27,22.50
2006,06,26,08,28,22.50
2006,06,26,08,29,22.40
2006,06,26,08,30,22.40
2006,06,26,08,31,22.40
2006,06,26,08,32,22.40
2006,06,26,08,33,22.40
2006,06,26,08,34,22.50
2006,06,26,08,35,22.50
2006,06,26,08,36,22.50
2006,06,26,08,37,22.60
2006,06,26,08,38,22.60
2006,06,26,08,39,22.70
2006,06,26,08,40,22.70
2006,06,26,08,41,22.80
2006,06,26,08,42,22.80
2006,06,26,08,43,22.90
2006,06,26,08,44,22.90
2006,06,26,08,45,22.90
2006,06,26,08,46,22.90
2006,06,26,08,47,22.90
2006,06,26,08,48,22.80
2006,06,26,08,49,22.80
2006,06,26,08,50,22.80
2006,06,26,08,51,22.90
2006,06,26,08,52,22.90
2006,06,26,08,53,22.90
2006,06,26,08,54,22.80
2006,06,26,08,55,22.80
2006,06,26,08,56,22.90
2006,06,26,08,57,22.90
2006,06,26,08,58,23.00
2006,06,26,08,59,23.20
2006,06,26,09,00,23.20
2006,06,26,09,01,23.30
2006,06,26,09,02,23.20
2006,06,26,09,03,23.20
2006,06,26,09,04,23.20
2006,06,26,09,05,23.10
2006,06,26,09,06,23.10
2006,06,26,09,07,23.20
2006,06,26,09,08,23.30
2006,06,26,09,09,23.30
2006,06,26,09,10,23.30
2006,06,26,09,11,23.30
2006,06,26,09,12,23.30
2006,06,26,09,13,23.30
2006,06,26,09,14,23.30
2006,06,26,09,15,23.30
2006,06,26,09,16,23.30
2006,06,26,09,17,23.30
2006,06,26,09,18,23.30
2006,06,26,09,19,23.30
2006,06,26,09,20,23.30
2006,06,26,09,21,23.30
2006,06,26,09,22,23.30
2006,06,26,09,23,23.30
2006,06,26,09,24,23.30
2006,06,26,09,25,23.30
2006,06,26,09,26,23.40
2006,06,26,09,27,23.40
2006,06,26,09,28,23.40
2006,06,26,09,29,23.50
2006,06,26,09,30,23.60
2006,06,26,09,31,23.60
2006,06,26,09,32,23.60
2006,06,26,09,33,23.70
2006,06,26,09,34,23.70
2006,06,26,09,35,23.70
2006,06,26,09,36,23.70
2006,06,26,09,37,23.70
2006,06,26,09,38,23.70
2006,06,26,09,39,23.70
2006,06,26,09,40,23.60
2006,06,26,09,41,23.60
2006,06,26,09,42,23.60
2006,06,26,09,43,23.60
2006,06,26,09,44,23.60
2006,06,26,09,45,23.60
2006,06,26,09,46,23.60
2006,06,26,09,47,23.60
2006,06,26,09,48,23.70
2006,06,26,09,49,23.70
2006,06,26,09,50,23.80
2006,06,26,09,51,23.90
2006,06,26,09,52,23.90
2006,06,26,09,53,23.90
2006,06,26,09,54,24.10
2006,06,26,09,55,24.00
2006,06,26,09,56,23.90
2006,06,26,09,57,23.90
2006,06,26,09,58,23.90
2006,06,26,09,59,23.80
2006,06,26,10,00,23.70
2006,06,26,10,01,23.70
2006,06,26,10,02,23.70
2006,06,26,10,03,23.70
2006,06,26,10,04,23.80
2006,06,26,10,05,23.90
2006,06,26,10,06,23.90
2006,06,26,10,07,24.00
2006,06,26,10,08,24.10
2006,06,26,10,09,24.10
2006,06,26,10,10,24.20
2006,06,26,10,11,24.20
2006,06,26,10,12,24.20
2006,06,26,10,13,24.20
2006,06,26,10,14,24.20
2006,06,26,10,15,24.20
2006,06,26,10,16,24.20
2006,06,26,10,17,24.20
2006,06,26,10,18,24.20
2006,06,26,10,19,24.30
2006,06,26,10,20,24.40
2006,06,26,10,21,24.50
2006,06,26,10,22,24.60
2006,06,26,10,23,24.60
2006,06,26,10,24,24.60
2006,06,26,10,25,24.70
2006,06,26,10,26,24.80
2006,06,26,10,27,24.80
2006,06,26,10,28,24.90
2006,06,26,10,29,24.90
2006,06,26,10,30,24.80
2006,06,26,10,31,24.70
2006,06,26,10,32,24.60
2006,06,26,10,33,24.50
2006,06,26,10,34,24.40
2006,06,26,10,35,24.30
2006,06,26,10,36,24.20
2006,06,26,10,37,24.20
2006,06,26,10,38,24.10
2006,06,26,10,39,24.10
2006,06,26,10,40,24.20
2006,06,26,10,41,24.20
2006,06,26,10,42,24.40
2006,06,26,10,43,24.50
2006,06,26,10,44,24.50
2006,06,26,10,45,24.50
2006,06,26,10,46,24.50
2006,06,26,10,47,24.40
2006,06,26,10,48,24.40
2006,06,26,10,49,24.40
2006,06,26,10,50,24.30
2006,06,26,10,51,24.20
2006,06,26,10,52,24.30
2006,06,26,10,53,24.30
2006,06,26,10,54,24.40
2006,06,26,10,55,24.40
2006,06,26,10,56,24.40
2006,06,26,10,57,24.40
2006,06,26,10,58,24.40
2006,06,26,10,59,24.50
2006,06,26,11,00,24.60
2006,06,26,11,01,24.60
2006,06,26,11,02,24.60
2006,06,26,11,03,24.70
2006,06,26,11,04,24.90
2006,06,26,11,05,25.00
2006,06,26,11,06,25.10
2006,06,26,11,07,25.10
2006,06,26,11,08,25.10
2006,06,26,11,09,25.10
2006,06,26,11,10,25.10
2006,06,26,11,11,25.00
2006,06,26,11,12,25.00
2006,06,26,11,13,25.00
2006,06,26,11,14,25.00
2006,06,26,11,15,24.90
2006,06,26,11,16,24.90
2006,06,26,11,17,24.90
2006,06,26,11,18,24.90
2006,06,26,11,19,24.90
2006,06,26,11,20,24.90
2006,06,26,11,21,25.00
2006,06,26,11,22,25.10
2006,06,26,11,23,25.30
2006,06,26,11,24,25.40
2006,06,26,11,25,25.50
2006,06,26,11,26,25.60
2006,06,26,11,27,25.60
2006,06,26,11,28,25.70
2006,06,26,11,29,25.70
2006,06,26,11,30,25.60
2006,06,26,11,31,25.60
2006,06,26,11,32,25.60
2006,06,26,11,33,25.70
2006,06,26,11,34,25.70
2006,06,26,11,35,25.60
2006,06,26,11,36,25.60
2006,06,26,11,37,25.60
2006,06,26,11,38,25.50
2006,06,26,11,39,25.50
2006,06,26,11,40,25.70
2006,06,26,11,41,25.70
2006,06,26,11,42,25.70
2006,06,26,11,43,25.70
2006,06,26,11,44,25.90
2006,06,26,11,45,25.90
2006,06,26,11,46,25.90
2006,06,26,11,47,25.90
2006,06,26,11,48,25.90
2006,06,26,11,49,25.90
2006,06,26,11,50,26.00
2006,06,26,11,51,26.00
2006,06,26,11,52,26.10
2006,06,26,11,53,26.00
2006,06,26,11,54,26.00
2006,06,26,11,55,26.00
2006,06,26,11,56,25.90
2006,06,26,11,57,25.90
2006,06,26,11,58,25.90
2006,06,26,11,59,25.90
2006,06,26,12,00,26.00
2006,06,26,12,01,26.00
2006,06,26,12,02,25.90
2006,06,26,12,03,25.80
2006,06,26,12,04,25.70
2006,06,26,12,05,25.60
2006,06,26,12,06,25.60
2006,06,26,12,07,25.60
2006,06,26,12,08,25.60
2006,06,26,12,09,25.60
2006,06,26,12,10,25.60
2006,06,26,12,11,25.70
2006,06,26,12,12,25.70
2006,06,26,12,13,25.60
2006,06,26,12,14,25.60
2006,06,26,12,15,25.60
2006,06,26,12,16,25.60
2006,06,26,12,17,25.60
2006,06,26,12,18,25.70
2006,06,26,12,19,25.80
2006,06,26,12,20,26.00
2006,06,26,12,21,26.30
2006,06,26,12,22,26.40
2006,06,26,12,23,26.40
2006,06,26,12,24,26.50
2006,06,26,12,25,26.60
2006,06,26,12,26,26.60
2006,06,26,12,27,26.60
2006,06,26,12,28,26.60
2006,06,26,12,29,26.60
2006,06,26,12,30,26.50
2006,06,26,12,31,26.40
2006,06,26,12,32,26.40
2006,06,26,12,33,26.40
2006,06,26,12,34,26.40
2006,06,26,12,35,26.60
2006,06,26,12,36,26.60
2006,06,26,12,37,26.70
2006,06,26,12,38,26.80
2006,06,26,12,39,26.90
2006,06,26,12,40,27.00
2006,06,26,12,41,27.10
2006,06,26,12,42,27.20
2006,06,26,12,43,27.20
2006,06,26,12,44,27.20
2006,06,26,12,45,27.30
2006,06,26,12,46,27.30
2006,06,26,12,47,27.30
2006,06,26,12,48,27.30
2006,06,26,12,49,27.30
2006,06,26,12,50,27.30
2006,06,26,12,51,27.20
2006,06,26,12,52,27.10
2006,06,26,12,53,27.10
2006,06,26,12,54,27.00
2006,06,26,12,55,27.10
2006,06,26,12,56,27.10
2006,06,26,12,57,27.10
2006,06,26,12,58,27.10
2006,06,26,12,59,27.10
2006,06,26,13,00,27.10
2006,06,26,13,01,27.20
2006,06,26,13,02,27.20
2006,06,26,13,03,27.20
2006,06,26,13,04,27.20
2006,06,26,13,05,27.20
2006,06,26,13,06,27.30
2006,06,26,13,07,27.30
2006,06,26,13,08,27.40
2006,06,26,13,09,27.40
2006,06,26,13,10,27.40
2006,06,26,13,11,27.40
2006,06,26,13,12,27.40
2006,06,26,13,13,27.30
2006,06,26,13,14,27.30
2006,06,26,13,15,27.30
2006,06,26,13,16,27.30
2006,06,26,13,17,27.30
2006,06,26,13,18,27.70
2006,06,26,13,19,27.80
2006,06,26,13,20,27.90
2006,06,26,13,21,27.90
2006,06,26,13,22,27.90
2006,06,26,13,23,27.70
2006,06,26,13,24,27.60
2006,06,26,13,25,27.40
2006,06,26,13,26,27.30
2006,06,26,13,27,27.30
2006,06,26,13,28,27.30
2006,06,26,13,29,27.40
2006,06,26,13,30,27.50
2006,06,26,13,31,27.60
2006,06,26,13,32,27.60
2006,06,26,13,33,27.70
2006,06,26,13,34,27.80
2006,06,26,13,35,27.80
2006,06,26,13,36,27.90
2006,06,26,13,37,28.00
2006,06,26,13,38,28.00
2006,06,26,13,39,28.10
2006,06,26,13,40,28.10
2006,06,26,13,41,28.20
2006,06,26,13,42,28.20
2006,06,26,13,43,28.20
2006,06,26,13,44,28.30
2006,06,26,13,45,28.20
2006,06,26,13,46,28.20
2006,06,26,13,47,28.20
2006,06,26,13,48,28.30
2006,06,26,13,49,28.40
2006,06,26,13,50,28.40
2006,06,26,13,51,28.50
2006,06,26,13,52,28.60
2006,06,26,13,53,28.70
2006,06,26,13,54,28.70
2006,06,26,13,55,28.60
2006,06,26,13,56,28.60
2006,06,26,13,57,28.60
2006,06,26,13,58,28.50
2006,06,26,13,59,28.50
2006,06,26,14,00,28.60
2006,06,26,14,01,28.60
2006,06,26,14,02,28.70
2006,06,26,14,03,28.60
2006,06,26,14,04,28.50
2006,06,26,14,05,28.40
2006,06,26,14,06,28.10
2006,06,26,14,07,28.00
2006,06,26,14,08,28.00
2006,06,26,14,09,27.90
2006,06,26,14,10,28.00
2006,06,26,14,11,28.00
2006,06,26,14,12,28.00
2006,06,26,14,13,28.00
2006,06,26,14,14,28.00
2006,06,26,14,15,28.10
2006,06,26,14,16,28.30
2006,06,26,14,17,28.40
2006,06,26,14,18,28.40
2006,06,26,14,19,28.40
2006,06,26,14,20,28.50
2006,06,26,14,21,28.60
2006,06,26,14,22,28.70
2006,06,26,14,23,28.80
2006,06,26,14,24,28.80
2006,06,26,14,25,28.90
2006,06,26,14,26,28.90
2006,06,26,14,27,28.90
2006,06,26,14,28,28.90
2006,06,26,14,29,28.90
2006,06,26,14,30,28.90
2006,06,26,14,31,28.90
2006,06,26,14,32,28.90
2006,06,26,14,33,28.90
2006,06,26,14,34,28.80
2006,06,26,14,35,28.80
2006,06,26,14,36,28.80
2006,06,26,14,37,28.90
2006,06,26,14,38,28.90
2006,06,26,14,39,28.90
2006,06,26,14,40,29.00
2006,06,26,14,41,28.90
2006,06,26,14,43,28.90
2006,06,26,14,45,28.80
2006,06,26,14,46,28.80
2006,06,26,14,47,28.80
2006,06,26,14,48,28.80
2006,06,26,14,49,28.70
2006,06,26,14,50,28.70
2006,06,26,14,51,28.70
2006,06,26,14,52,28.60
2006,06,26,14,53,28.60
2006,06,26,14,54,28.70
2006,06,26,14,55,28.80
2006,06,26,14,56,28.70
2006,06,26,14,57,28.70
2006,06,26,14,58,28.70
2006,06,26,14,59,28.70
2006,06,26,15,00,28.70
2006,06,26,15,01,28.80
2006,06,26,15,02,28.80
2006,06,26,15,03,28.80
2006,06,26,15,04,28.80
2006,06,26,15,05,28.90
2006,06,26,15,06,28.90
2006,06,26,15,07,28.90
2006,06,26,15,08,28.90
2006,06,26,15,09,28.80
2006,06,26,15,10,28.90
2006,06,26,15,11,28.90
2006,06,26,15,12,28.90
2006,06,26,15,13,28.90
2006,06,26,15,14,29.00
2006,06,26,15,15,29.10
2006,06,26,15,16,29.10
2006,06,26,15,17,29.20
2006,06,26,15,18,29.10
2006,06,26,15,19,29.00
2006,06,26,15,20,28.90
2006,06,26,15,21,28.90
2006,06,26,15,22,29.00
2006,06,26,15,23,29.00
2006,06,26,15,24,28.90
2006,06,26,15,25,28.90
2006,06,26,15,26,29.00
2006,06,26,15,27,29.10
2006,06,26,15,28,29.10
2006,06,26,15,29,29.10
2006,06,26,15,30,29.00
2006,06,26,15,31,28.90
2006,06,26,15,32,28.90
2006,06,26,15,33,28.90
2006,06,26,15,34,28.90
2006,06,26,15,35,29.00
2006,06,26,15,36,29.10
2006,06,26,15,37,29.10
2006,06,26,15,38,29.10
2006,06,26,15,39,29.10
2006,06,26,15,40,29.20
2006,06,26,15,41,29.30
2006,06,26,15,42,29.30
2006,06,26,15,43,29.30
2006,06,26,15,44,29.30
2006,06,26,15,45,29.20
2006,06,26,15,46,29.20
2006,06,26,15,47,29.30
2006,06,26,15,48,29.30
2006,06,26,15,49,29.40
2006,06,26,15,50,29.40
2006,06,26,15,51,29.40
2006,06,26,15,52,29.40
2006,06,26,15,53,29.40
2006,06,26,15,54,29.50
2006,06,26,15,55,29.50
2006,06,26,15,56,29.50
2006,06,26,15,57,29.50
2006,06,26,15,58,29.50
2006,06,26,15,59,29.60
2006,06,26,16,00,29.80
2006,06,26,16,01,29.90
2006,06,26,16,02,30.10
2006,06,26,16,03,30.20
2006,06,26,16,04,30.30
2006,06,26,16,05,30.30
2006,06,26,16,06,30.30
2006,06,26,16,07,30.30
2006,06,26,16,08,30.30
2006,06,26,16,09,30.40
2006,06,26,16,10,30.40
2006,06,26,16,11,30.40
2006,06,26,16,12,30.50
2006,06,26,16,13,30.60
2006,06,26,16,14,30.70
2006,06,26,16,15,30.70
2006,06,26,16,16,30.80
2006,06,26,16,17,30.80
2006,06,26,16,18,30.80
2006,06,26,16,19,30.80
2006,06,26,16,20,30.70
2006,06,26,16,21,30.70
2006,06,26,16,22,30.80
2006,06,26,16,23,30.80
2006,06,26,16,24,30.80
2006,06,26,16,25,30.90
2006,06,26,16,26,31.00
2006,06,26,16,27,31.20
2006,06,26,16,28,31.30
2006,06,26,16,29,31.30
2006,06,26,16,30,31.30
2006,06,26,16,31,31.30
2006,06,26,16,32,31.30
2006,06,26,16,33,31.30
2006,06,26,16,34,31.30
2006,06,26,16,35,31.30
2006,06,26,16,36,31.20
2006,06,26,16,37,31.10
2006,06,26,16,38,31.00
2006,06,26,16,39,31.00
2006,06,26,16,40,30.90
2006,06,26,16,41,30.90
2006,06,26,16,42,30.90
2006,06,26,16,43,30.90
2006,06,26,16,44,30.90
2006,06,26,16,45,31.00
2006,06,26,16,46,31.10
2006,06,26,16,47,31.10
2006,06,26,16,48,31.10
2006,06,26,16,49,31.10
2006,06,26,16,50,31.10
2006,06,26,16,51,31.20
2006,06,26,16,52,31.30
2006,06,26,16,53,31.40
2006,06,26,16,54,31.50
2006,06,26,16,55,31.60
2006,06,26,16,56,31.70
2006,06,26,16,57,31.80
2006,06,26,16,58,31.80
2006,06,26,16,59,31.80
2006,06,26,17,00,31.70
2006,06,26,17,01,31.70
2006,06,26,17,02,31.70
2006,06,26,17,03,31.70
2006,06,26,17,04,31.70
2006,06,26,17,05,31.80
2006,06,26,17,06,31.90
2006,06,26,17,07,31.90
2006,06,26,17,08,32.00
2006,06,26,17,09,32.10
2006,06,26,17,10,32.10
2006,06,26,17,11,32.10
2006,06,26,17,12,32.10
2006,06,26,17,13,32.20
2006,06,26,17,14,32.00
2006,06,26,17,15,31.60
2006,06,26,17,16,31.40
2006,06,26,17,17,31.20
2006,06,26,17,18,30.80
2006,06,26,17,19,30.70
2006,06,26,17,20,30.40
2006,06,26,17,21,30.10